Regional Weather Roundup
Issued by NWS Northern Indiana

Home | Current Version | Previous Version | Graphics & Text | Print | Product List | Glossary On
Versions: 1 2 3 4 5 6 7 8 9 10 11 12 13 14 15 16 17 18 19 20 21 22 23 24 25 26 27 28 29 30 31 32 33 34 35 36 37 38 39 40 41 42 43 44 45 46 47 48 49 50
000
ASUS43 KIWX 291010
RWRIWX

KIWX WEATHER ROUNDUP
NATIONAL WEATHER SERVICE NORTHERN INDIANA
600 AM EDT FRI JUL 29 2016

NOTE: "FAIR" INDICATES FEW OR NO CLOUDS BELOW 12,000 FEET WITH NO
SIGNIFICANT WEATHER AND/OR OBSTRUCTIONS TO VISIBILITY.

* THESE STATIONS ARE NOT UNDER NWS QUALITY CONTROL. THEY ALSO MAY NOT
  REPORT WEATHER SUCH AS PRECIPITATION OR FOG.

INZ001>027-291100-
NORTHERN INDIANA

CITY           SKY/WX    TMP DP  RH WIND       PRES   REMARKS
GARY*          PTCLDY    68  68 100 CALM      29.91S
VALPARAISO     CLEAR     66  64  93 CALM      29.92R
MICHIGAN CITY* PTCLDY    63  63 100 CALM      29.92S FOG
LAPORTE*       PTCLDY   N/A N/A N/A CALM      29.92S HAZE
KNOX*          CLOUDY    63  63 100 CALM      29.91R VSB 1/4
SOUTH BEND     CLEAR     66  65  96 CALM      29.92R
GOSHEN         MOCLDY    69  65  86 CALM      29.92R FOG
MONTICELLO*    CLEAR     66  62  87 CALM      29.90R
LOGANSPORT*      N/A     63  63 100 CALM      29.91R FOG
ROCHESTER*     CLEAR     68  68 100 CALM      29.91R FOG
WARSAW*        CLEAR     64  64 100 CALM      29.92R FOG
ANGOLA*          N/A     68  59  73 CALM      29.93S
FORT WAYNE     PTCLDY    69  67  93 E7        29.91S FOG
HUNTINGTON*    CLEAR     67  66  95 CALM      29.91R
PERU/GRISSOM   CLEAR     64  64 100 CALM      29.89S
MARION*        CLEAR     63  63 100 CALM      29.92R

$$
INZ028>050-291100-
CENTRAL INDIANA

CITY           SKY/WX    TMP DP  RH WIND       PRES   REMARKS
LAFAYETTE      FOG       69  69 100 CALM      29.89S VSB<1/4
KOKOMO*        CLEAR     64  59  82 CALM      29.91R
MUNCIE*        CLEAR     68  64  87 CALM      29.91S
INDIANAPOLIS   MOCLDY    71  68  90 CALM      29.92R

$$
MIZ043>046-050>051-056>058-064>065-071>073-077>080-291100-
SOUTHWEST LOWER MICHIGAN

CITY           SKY/WX    TMP DP  RH WIND       PRES   REMARKS
BATTLE CREEK   LGT RAIN  65  65 100 NE3       29.95S
BENTON HARBOR  CLEAR     67  64  90 E5        29.91S
COLDWATER*     CLOUDY    68  64  87 E5        29.94R
HILLSDALE*     CLEAR     65  61  87 CALM      29.94S
HOLLAND        PTCLDY    68  62  81 VRB6      29.94R
GRAND RAPIDS   LGT RAIN  66  62  87 NE7       29.96R
KALAMAZOO      CLOUDY    69  64  84 CALM      29.93S
STURGIS*       CLEAR     66  65  96 NE5       29.92S
THREE RIVERS*  FAIR      68  65  89 NE5       29.93R

$$
OHZ001>008-015>018-024>025-291100-
NORTHWEST OHIO

CITY           SKY/WX    TMP DP  RH WIND       PRES   REMARKS
DEFIANCE       PTCLDY    71  62  73 NE5       29.92R
FINDLAY        CLEAR     68  63  84 CALM      29.91R
TOLEDO EXPRESS CLOUDY    69  60  73 N5        29.92R
TOLEDO METCALF CLOUDY    72  67  84 NE3       29.92S
LIMA           CLEAR     66  64  93 SE6       29.92S

$$
AND FOR LAKE MICHIGAN COASTAL AND OPEN LAKE BUOY OBSERVATIONS

STATION/POSITION TEMP    WIND        PRES    VSBY  WAVE
                 AIR SEA DIR/SP/G                  HT/PER
                 (F)     (DEG/KT/KT) (MB)    (MI)  (FT/S)
CALUMET HARBOR    73      30/  2/  4 1012.1F
MICHIGAN CITY     72      50/  4/  5   N/A
BURNS HARBOR      72      70/  3/  8 1013.2S
SAINT JOSEPH      69     210/  1/  3 1013.2S
SOUTH LAKE BUOY   73 75   70/ 14/ 16 1012.7R         2/ 6
4 MI NW BRIDGMAN  71 76  100/ 10/ 14 1012.4R         2
MICHIGAN CITY     74 77  100/  6/  8   N/A           2/ 6

$$
&&




USA.gov is the U.S. government's official web portal to all federal, state and local government web resources and services.